CZ-6A DEB, 60966

Orbit data source: Space-Track

CZ-6A DEB, 60966 is space debris in LEO originally from a launch on Tue, 06 Aug 2024 UTC launched from the Taiyaun Space Center, China (TSC). Debris objects in space refer to the collection of defunct objects orbiting the Earth. Examples of debris include non-operational satellites, rocket bodies, and fragments generated from explosions, collisions, or faulty payload assembly.

Loading next visibility...
Identifier
60966, 2024-140LR
Orbit
LEO
Country
Flag of CNCN / PRC
Related business
Manufacturer
SAST
Mission
Spacecraft
Bus & Motor
Unknown
Mass
Unknown
Launch date (UTC)
2024-08-06 (2 years ago)
Launch vehicle
Unknown
Launch site
Taiyaun Space Center, China (TSC)
Object type
Payload
Rocket body
Debris
Shape & HBR
Unknown shape, 0.1 m
Radar Cross Section
Medium (>0.1 m² and <1 m²)

Expand to show TLE details & history
Last TLE update: 16 hours ago

TLE from 16 hours ago
0 CZ-6A DEB
1 60966U 24140LR  26171.19180030  .00000998  00000-0  26771-3 0  9999
2 60966  88.8845 261.3326 0067719 289.8900  69.5016 14.46089492 96659
Epoch: 2026-06-20T04:36Z
TLE epoch observation values (Epoch: 2026-06-20T04:36:11.545Z)
Latitude
-0.00004°
Longitude
-76.12546°
Altitude
724.947 km
Speed
7.501 km/s
True Right ascension
17h 25m 19s
True Declination
0° 00' 00"
Sunlit
Object was in full shadow at epoch
Visualization orbit readout
Latitude
Unknown
Longitude
Unknown
Altitude
Unknown
Speed
Unknown
Apparent Right ascension
Unknown
Apparent Declination
Unknown
Sunlit
N/A
Visualization observer readout
Local Sidereal Time
07:14:07
Azimuth
Unknown
Elevation
Unknown
Doppler factor
Unknown
Orbital elements
Apogee altitude
783.536 km
Perigee altitude
687.192 km
Semi-major axis
7,113.501 km
Eccentricity
0.00677
Inclination
88.8845°
RAAN
261.3326°
Arg. of periapsis
289.89°
True anomaly
70.23061°
Mean anomaly
69.5016°
Eccentric anomaly
69.86589°
Mean motion
3.61758 °/min
Orbital period
99.51 mins
BSTAR
0.00026771
Loading maneuver chart data...
Computing Atmospheric mass density...
Loading historical data...
Loading historical data...
Loading historical data...
Loading historical data...
Loading historical data...
Loading historical data...
Loading historical data...

Documentation

Showing up to 5 results
|